COSMOS 2569 (703K)

Last updated on Mon Sep 21 2026 00:02:49 GMT+0000 (Coordinated Universal Time)

1 57517U 23114A 26262.57434794 .00000030 00000+0 00000+0 0 9998 2 57517 65.3619 69.4406 0008621 287.8481 72.0897 2.13102667 24277
UTC large
Height (km)
Speed (km/s)
/
Latitude / Longitude
Inclination (degrees)
Orbital Period (minutes)
Azimuth
Elevation
Range (km)
Doppler Factor

Next 0 passes for location: London (51.5072 / 0.1276)

No passes found over London.
COSMOS 2569 (703K)